Regional Weather Roundup
Issued by NWS Upton, NY

Current Version | Previous Version | Text Only | Print | Product List | Glossary On
Versions: 1 2 3 4 5 6 7 8 9 10 11 12 13 14 15 16 17 18 19 20 21 22 23 24 25 26 27 28 29 30 31 32 33 34 35 36 37 38 39 40 41 42 43 44 45 46 47 48 49
000
ASUS41 KOKX 011204
RWROKX

REGIONAL WEATHER ROUNDUP
NATIONAL WEATHER SERVICE NEW YORK NY
800 AM EDT SUN MAY 01 2016

NOTE: "FAIR" INDICATES FEW OR NO CLOUDS BELOW 12,000 FEET WITH NO
SIGNIFICANT WEATHER AND/OR OBSTRUCTIONS TO VISIBILITY.

NYZ071-072-176-178-NJZ106-104-011300-
NEW YORK CITY METRO AREA


CITY           SKY/WX    TMP DP  RH WIND       PRES   REMARKS
CENTRAL PARK   CLOUDY    49  36  61 S7        30.24R
LAGUARDIA APRT LGT RAIN  50  38  63 S9        30.22R
KENNEDY INTL   LGT RAIN  50  42  74 SE7       30.23S
NEWARK/LIBERTY LGT RAIN  50  42  74 SE6       30.21S
BRNX BOT. GARD   N/A     48  39  71 S2        30.21F
TETERBORO      LGT RAIN  50  39  66 S6        30.20S
$$

NYZ177-179-078>081-011300-
LONG ISLAND NEW YORK

CITY           SKY/WX    TMP DP  RH WIND       PRES   REMARKS
FARMINGDALE    CLOUDY    49  40  71 SE8       30.23R
ISLIP          CLOUDY    48  41  76 SE12      30.23R
SHIRLEY        CLOUDY    48  41  76 SE8       30.24R
RIVERHEAD        N/A     48  43  81 SE2       30.23S
WESTHAMPTON    CLOUDY    47  40  76 SE7       30.25S
EAST HAMPTON   CLOUDY    46  39  76 E9        30.24S
MONTAUK POINT    N/A     48  38  68 E5        30.26F
$$

NYZ052-065-067-011300-
HUDSON VALLEY

CITY           SKY/WX    TMP DP  RH WIND       PRES   REMARKS
WHITE PLAINS   LGT RAIN  47  40  76 SE6       30.21R
NEWBURGH       LGT RAIN  46  43  87 CALM      30.21R
MONTGOMERY     LGT RAIN  47  42  83 CALM      30.20R
POUGHKEEPSIE   LGT RAIN  49  42  77 CALM      30.21R
ALBANY         LGT RAIN  49  37  63 S6        30.19R
$$

NJZ001-105-106-008-010-013-015-019>022-104-011300-
NEW JERSEY

CITY           SKY/WX    TMP DP  RH WIND       PRES   REMARKS
NEWARK/LIBERTY LGT RAIN  50  42  74 SE6       30.21S
TETERBORO      LGT RAIN  50  39  66 S6        30.20S
CALDWELL       LGT RAIN  49  40  71 S3        30.22R
MORRISTOWN     DRIZZLE   48  43  81 CALM      30.21S
SOMERVILLE     LGT RAIN  48  44  86 CALM      30.20S
SUSSEX         LGT RAIN  45  42  89 CALM      30.20R
ANDOVER          N/A     44  40  85 CALM      30.20R
TRENTON        LGT RAIN  47  43  86 CALM      30.21R FOG
MILLVILLE      LGT RAIN  48  47  96 E7        30.19S FOG
ATLANTIC CITY  LGT RAIN  49  47  93 E3        30.20S
WRIGHTSTOWN    LGT RAIN  46  45  95 E1        30.18S
TOMS RIVER     CLOUDY    48  43  81 E3        30.21F
BELMAR         LGT RAIN  48  45  89 E6        30.22F
$$

PAZ047>061-062-071-011300-
EASTERN PENNSYLVANIA

CITY           SKY/WX    TMP DP  RH WIND       PRES   REMARKS
PHILADELPHIA   RAIN      47  41  80 E7        30.20S
ALLENTOWN      LGT RAIN  45  41  86 E8        30.18S
SCRANTON       CLOUDY    43  36  76 VRB6      30.11F
$$

CTZ002-004>006-009-010-012-RIZ004-006-007-MAZ004-011-015-011300-
SOUTHERN NEW ENGLAND
 IN CT

CITY           SKY/WX    TMP DP  RH WIND       PRES   REMARKS
BRADLEY INTL   CLOUDY    48  36  63 S3        30.22S
HARTFORD       CLOUDY    50  35  56 S3        30.23S
DANBURY        CLOUDY    46  39  76 NE5       30.22R
WTRBRY/OXFORD  CLOUDY    46  36  66 SE5       30.23R
BRIDGEPORT     CLOUDY    49  39  68 SE9       30.23R
MERIDEN        CLOUDY    49  36  61 CALM      30.23S
NEW HAVEN      CLOUDY    48  39  71 E9        30.23R
CHESTER        PTSUNNY   46  39  76 SE5       30.23S
GROTON         CLOUDY    48  45  89 E7        30.24F
WILLIMANTIC    CLOUDY    47  37  68 S3        30.24S

 IN RI

CITY           SKY/WX    TMP DP  RH WIND       PRES   REMARKS
PROVIDENCE     CLOUDY    47  38  71 S5        30.26F
BLOCK ISLAND   CLOUDY    47  37  68 SE7       30.26S
WESTERLY       CLOUDY    48  35  60 SE7       30.26R

 IN MA

CITY           SKY/WX    TMP DP  RH WIND       PRES   REMARKS
BOSTON         CLOUDY    47  35  63 S6        30.26S
WORCESTER      CLOUDY    47  19  33 SW6       30.22S
WESTFIELD      CLOUDY    47  36  65 CALM      30.22S
PROVINCETOWN   CLOUDY    47  40  76 S6        30.28R
NANTUCKET      CLOUDY    47  36  65 E8        30.27R
$$

ANZ330-335-338-340-345-350-353-355-011300-
COASTAL MARINE OBSERVATIONS


STATION/POSITION TIME  SKY/WX   TEMP    WIND        PRES    VSBY  WAVE
                                AIR SEA DIR/SP/G                  HT/PER
                 (UTC)          (F)     (DEG/KT/KT) (MB)    (MI)  (FT/S)
NY HARB ENTRANCE 1050            49 51  110/  8/ 10 1022.7          4/ 9
20S FIRE ISLAND  1050            47 49   90/  8/  8 1023.3          4/ 8
GREAT SOUTH BAY  1130            48 57  120/  8/ 12   N/A
23 SSW MONTAUK P 1150            46 47  110/ 12/ 14 1023.7          4/ 8
15 E BARNEGAT LI 1122               51                N/A           4/ 8
HUDSON CANYON    1050            49 48              1022.6          4/ 8
KINGS POINT      1100            48 53              1022.9
EXECUTION ROCKS  NOT AVBL
CENTRAL LI SOUND 1115            47     110/ 10/ 12   N/A           0
EASTERN LI SOUND 1100            47 48  110/  6/  8   N/A
ROBBINS REEF     1118            49     150/ 10/ 11 1022.5
$$


>>>>>>>>>>>>>>>>>>>>>>>>>>>> KEY <<<<<<<<<<<<<<<<<<<<<<<<<<<
>                                                          <
>     SKY/WX - SKY CONDITION/PRESENT WEATHER               <
>     TMP    - TEMPERATURE IN FAHRENHEIT                   <
>     DP     - DEWPOINT IN FAHRENHEIT                      <
>     RH     - RELATIVE HUMIDITY IN PERCENT                <
>     WIND   - DIRECTION AND SPEED IN MPH                  <
>     PRES   - MEAN SEA LEVEL PRESSURE IN INCHES OF HG     <
>     WCI    - WIND CHILL INDEX                            <
>     VSB    - VISIBILITY IN MILES                         <
>     HX     - HEAT INDEX                                  <
>     TC     - TEMPERATURE IN CELSIUS                      <
>     VRB    - VARIABLE WIND DIRECTION                     <
>                                                          <
>>>>>>>>>>>>>>>>>>>>>>>>>>>> KEY <<<<<<<<<<<<<<<<<<<<<<<<<<<





USA.gov is the U.S. government's official web portal to all federal, state and local government web resources and services.